LEMUR-2-TRUTNA

Last updated on Mon Apr 16 2018 00:15:04 GMT+0000 (Coordinated Universal Time)

1 42067U 98067LC 18104.90495567 .11545946 12401-4 10058-2 0 9991 2 42067 51.6222 284.7692 0008721 289.6756 70.2530 16.38337775 63396

Satellite not in orbit